This is the latest recevied weather packets stored in our database for station/object JE3XST-13. If no packets are shown the sender has not sent any weather packets the latest 10 day(s).
| Time | Temp. | Humidity | Pressure | Rain* | Wind** | Luminosity | Snow |
|---|---|---|---|---|---|---|---|
| 1777751129 | 15.56° C | 81% | 1010.9 hPa | 0 mm | - | - | - |
| 1777749330 | 15.56° C | 81% | 1011.1 hPa | 0 mm | - | - | - |
| 1777747529 | 15.56° C | 81% | 1011.4 hPa | 0 mm | - | - | - |
| 1777745729 | 15.56° C | 80% | 1011.4 hPa | 0 mm | - | - | - |
| 1777743928 | 15.56° C | 80% | 1011.4 hPa | 0 mm | - | - | - |
| 1777742128 | 16.11° C | 80% | 1011.7 hPa | 0 mm | - | - | - |
| 1777740330 | 16.11° C | 79% | 1011.9 hPa | 0 mm | - | - | - |
| 1777738529 | 16.11° C | 78% | 1012.1 hPa | 0 mm | - | - | - |
| 1777736729 | 16.11° C | 78% | 1012 hPa | 0 mm | - | - | - |
| 1777734928 | 16.11° C | 78% | 1012.2 hPa | 0 mm | - | - | - |
| 1777733128 | 16.67° C | 75% | 1012.7 hPa | 0 mm | - | - | - |
| 1777731329 | 17.22° C | 75% | 1012.9 hPa | 0 mm | - | - | - |
| 1777729529 | 17.22° C | 74% | 1012.9 hPa | 0 mm | - | - | - |
| 1777727730 | 17.22° C | 73% | 1013 hPa | 0 mm | - | - | - |
| 1777725929 | 17.78° C | 71% | 1012.9 hPa | 0 mm | - | - | - |
| 1777724129 | 18.33° C | 68% | 1012.9 hPa | 0 mm | - | - | - |
| 1777722329 | 18.89° C | 68% | 1012.5 hPa | 0 mm | - | - | - |
| 1777720529 | 19.44° C | 63% | 1012.2 hPa | 0 mm | - | - | - |
| 1777718730 | 20.56° C | 61% | 1011.9 hPa | 0 mm | - | - | - |
| 1777716928 | 21.67° C | 50% | 1011.7 hPa | 0 mm | - | - | - |
| 1777715128 | 22.22° C | 54% | 1011.4 hPa | 0 mm | - | - | - |
| 1777713328 | 22.78° C | 44% | 1010.9 hPa | 0 mm | - | - | - |
| 1777711530 | 22.78° C | 44% | 1010.8 hPa | 0 mm | - | - | - |
| 1777709728 | 22.78° C | 46% | 1010.6 hPa | 0 mm | - | - | - |
| 1777707928 | 23.33° C | 48% | 1010.4 hPa | 0 mm | - | - | - |
* Rain latest hour (hover to see other rain measurements)
** Current wind speed in m/s (hover to see current wind gust speed)